Regional Weather Roundup
Issued by NWS

Home | Current Version | Previous Version | Graphics & Text | Print | Product List | Glossary On
Versions: 1 2 3 4 5 6 7 8 9 10 11 12 13 14 15 16 17 18 19 20 21 22 23 24 25 26 27 28 29 30 31 32 33 34 35 36 37 38 39 40 41 42 43 44 45 46 47 48 49 50
000
ASUS45 KTFX 251804
RWRMT
MONTANA HOURLY WEATHER ROUNDUP
NATIONAL WEATHER SERVICE GREAT FALLS MT
1204 PM MDT SAT OCT 25 2014

NOTE: "FAIR" INDICATES FEW OR NO CLOUDS BELOW 12000 FEET WITH NO
SIGNIFICANT WEATHER AND/OR OBSTRUCTIONS TO VISIBILITY.

* THESE STATIONS ARE NOT UNDER NWS QUALITY CONTROL. THEY DO NOT
   REPORT WEATHER SUCH AS PRECIPITATION OR FOG.

MTZ001>007-043-251900-
WEST OF THE DIVIDE
CITY           SKY/WX    TMP DP  RH WIND       PRES   REMARKS
KALISPELL      CLOUDY    48  41  77 E5        29.81F
MISSOULA       CLOUDY    46  45  96 S6        29.86F
BUTTE          PTCLDY    52  37  57 CALM      29.94F
MULLAN PASS    FOG       36  36 100 S13       29.79F VSB M1/4 WCI  27
* ESSEX        N/A       47  36  66 SE12       N/A
* LINCOLN      N/A       36  35  96 S3         N/A
* LOOKOUT PASS N/A       40  40 100 S14        N/A   WCI  32
* POLSON       N/A       46  43  89 N2         N/A
* RONAN APT    CLOUDY    45  43  93 N/A        N/A
* SEELEY LAKE  N/A       39  37  93 N/A        N/A
* THOMP F APT  CLOUDY    58  28  32 SE9G17     N/A
$$

MTZ008-052>055-251900-
SOUTHWEST MONTANA
CITY           SKY/WX    TMP DP  RH WIND       PRES   REMARKS
BOZEMAN        FOG       39  39 100 CALM      29.94F VSB 1/2
DILLON         SUNNY     48  41  77 NW5       29.95F
W YELLOWSTONE  SUNNY     50  30  46 NE6       30.10F
* THREE FORKS  PTCLDY    39  21  48 N/A        N/A
* BOULDER HILL N/A       45  30  56 SW14       N/A
* MONIDA PASS  N/A       55  28  35 SE19G25    N/A
* RAYNOLDS PAS N/A       60  35  39 SE11G20    N/A
* WHITEHALL    N/A       40  40 100 NW4        N/A
* WISE RIVER   N/A       36  35  96 W5         N/A   WCI  32
$$

MTZ009>010-012-014-046-048-049-054-251900-
EAST SLOPES AND CENTRAL MONTANA
CITY           SKY/WX    TMP DP  RH WIND       PRES   REMARKS
CUT BANK       PTSUNNY   48  36  63 SE10      29.86F
GREAT FALLS    SUNNY     54  43  67 CALM      29.86F
HELENA         PTSUNNY   46  39  77 CALM      29.91F
MALMSTROM AFB  SUNNY     50  41  71 VRB1      29.87F
* CONRAD       PTCLDY    48  39  71 N/A        N/A
* DEARBORN     N/A       50  41  71 S3         N/A
* EAST GLACIER N/A       43  33  68 SE5        N/A
* MONARCH      N/A       63  22  21 S11G16     N/A
* PENDROY      N/A       46  38  74 S6         N/A
* ROGERS PASS  N/A       54  31  42 SE2G9      N/A
* SAINT MARY   N/A       43  37  79 SW2        N/A
* SWEET GRASS  N/A       49  28  44 S20        N/A
$$

MTZ011-013-016-021-035-040-045-047-050-051-251900-
NORTH CENTRAL MONTANA
CITY           SKY/WX    TMP DP  RH WIND       PRES   REMARKS
HAVRE          PTCLDY    59  34  39 E17       29.87F
LEWISTOWN      SUNNY     63  41  45 E7        29.91F
* CHESTER      N/A       54  33  45 SE9G18     N/A
* DENTON       N/A       62  38  41 SE17       N/A
* JUDITH GAP   N/A       53  36  53 S14        N/A
* LOMA         N/A       55  37  51 E12        N/A
$$

MTZ017>020-022>027-061-062-251900-
NORTHEAST MONTANA
CITY           SKY/WX    TMP DP  RH WIND       PRES   REMARKS
GLASGOW        SUNNY     57  32  39 SE17      30.00F
GLENDIVE       SUNNY     57  34  42 E7        30.06F
JORDAN         SUNNY     61  34  36 SE15      29.98F
SIDNEY         SUNNY     59  34  39 CALM      30.10F
WOLF POINT     PTCLDY    57  36  46 E9        30.05F
* BEAVER HILL  N/A       60  27  28 SE16G22    N/A
* CIRCLE       N/A       59  37  44 SE7G14     N/A
* LINDSAY DVD  N/A       58  29  33 SE17       N/A
* NAVAJO       N/A       50  31  48 SE3        N/A
$$

MTZ028>042-056>058-251900-
SOUTHCENTRAL AND SOUTHEAST MONTANA
CITY           SKY/WX    TMP DP  RH WIND       PRES   REMARKS
BAKER          SUNNY     61  30  31 SE21G28   30.06F
BILLINGS       SUNNY     54  36  51 SW5       29.97F
LIVINGSTON     SUNNY     54  37  53 E6        29.95F
MILES CITY     SUNNY     63  34  34 SE18      29.99F
* LAUREL APT   SUNNY     52  36  55 N/A        N/A
* ROUNDUP APT  SUNNY     52  36  55 N/A        N/A
* ALZADA       N/A       59  34  39 SE5        N/A
* LAME DEER    N/A       56  34  44 S9         N/A
* REED POINT   N/A       47  36  66 W6         N/A
* ROSCOE HILL  N/A       64  34  33 E4G9       N/A
$$

REGIONAL REPORTS...DAKOTAS
CITY           SKY/WX    TMP DP  RH WIND       PRES   REMARKS
WILLISTON      SUNNY     57  30  36 SE9       30.09F
DICKINSON      SUNNY     59  30  33 SE9       30.09F
BEACH          N/A       59  27  29 S16G22    30.08F
CROSBY         SUNNY     55  30  39 S9        30.10F
TIOGA          CLOUDY    54  28  37 S10       30.13F
BISMARCK       SUNNY     61  34  36 E6        30.15F
GRAND FORKS    SUNNY     57  27  32 NW18G24   30.07F
FARGO          SUNNY     57  28  33 NW18      30.10F
BUFFALO SD     SUNNY     63  30  29 SE15G22   30.02F
RAPID CITY     SUNNY     63  30  29 S18       30.12F
$$

REGIONAL REPORTS...WYOMING/IDAHO/WASHINGTON
CITY           SKY/WX    TMP DP  RH WIND       PRES   REMARKS
GILLETTE       SUNNY     63  36  37 S17       30.08F
SHERIDAN       SUNNY     57  34  42 N6        30.00F
CODY           SUNNY     68  27  21 CALM      30.01F
YELLOWSTONE LA SUNNY     57  27  32 VRB3      30.18F
SALMON         CLOUDY    45  39  80 CALM      29.95F
MULLAN PASS    FOG       36  36 100 S13       29.79S VSB M1/4 WCI  27
SAND POINT     CLOUDY    48  39  71 NE14G21   29.71F
SPOKANE        PTSUNNY   52  43  72 E13G20    29.64F

$$




USA.gov is the U.S. government's official web portal to all federal, state and local government web resources and services.